Bel Air, Maryland - USA


Today's Data File


9/3/26
Time         Wind Dir   Wind Spd  Wind Gust     Hum In   Humidity    Temp In       Temp  Raw Barom Wind Chill  Press Alt Cloud Base   Dens Alt Temp Out R  DailyRain   24HrRain   RainRate
                    �        mph        mph          %          %         �F         �F         in         �F         ft         ft         ft      �F/hr         in         in      in/hr
12:00am           194          0          0         44        100       73.8       71.9      29.48       71.9        410          0       1359      -0.08       0.00       0.31      0.000
12:01am           194          0          0         44        100       73.6       71.9      29.48       71.9        407          0       1356      -0.08       0.00       0.31      0.000
12:02am           195          0          0         44        100       73.6       71.9      29.48       71.9        408          0       1357      -0.08       0.00       0.31      0.000
12:03am           194          0          0         44        100       73.6       71.9      29.48       71.9        412          0       1362      -0.07       0.00       0.31      0.000
12:04am           194          0          0         44        100       73.6       71.8      29.47       71.8        415          0       1359      -0.17       0.00       0.31      0.000
12:05am           195          0          0         44        100       73.6       71.9      29.47       71.9        418          0       1368      -0.07       0.00       0.31      0.000
12:06am           194          0          0         44        100       73.6       71.8      29.47       71.8        418          0       1363      -0.17       0.00       0.31      0.000
12:07am           194          0          0         44        100       73.6       71.8      29.47       71.8        418          0       1363      -0.17       0.00       0.31      0.000
12:08am           195          0          0         44        100       73.6       71.9      29.47       71.9        418          0       1370      -0.06       0.00       0.31      0.000
12:09am           194          0          0         44        100       73.6       71.8      29.47       71.8        418          0       1363      -0.16       0.00       0.31      0.000
12:10am           195          0          0         44        100       73.6       71.9      29.47       71.9        418          0       1370      -0.06       0.00       0.31      0.000
12:11am           195          0          0         44        100       73.6       71.9      29.47       71.9        418          0       1370      -0.06       0.00       0.31      0.000
12:12am           194          0          0         44        100       73.6       71.9      29.47       71.9        418          0       1370      -0.06       0.00       0.31      0.000
12:13am           195          0          0         44        100       73.6       71.9      29.47       71.9        419          0       1371      -0.06       0.00       0.31      0.000
12:14am           194          0          0         44        100       73.6       72.0      29.47       72.0        419          0       1377       0.04       0.00       0.31      0.000
12:15am           195          0          0         44        100       73.6       72.0      29.47       72.0        418          0       1375       0.04       0.00       0.31      0.000
12:16am           195          0          0         44        100       73.6       71.9      29.47       71.9        417          0       1367      -0.06       0.00       0.31      0.000
12:17am           194          0          0         44        100       73.5       72.0      29.47       72.0        418          0       1376       0.04       0.00       0.31      0.000
12:18am           194          0          0         44        100       73.5       71.9      29.47       71.9        419          0       1371      -0.06       0.00       0.31      0.000
12:19am           195          0          0         44        100       73.5       71.9      29.47       71.9        419          0       1371      -0.06       0.00       0.31      0.000
12:20am           194          0          0         44        100       73.5       71.9      29.47       71.9        420          0       1372      -0.06       0.00       0.31      0.000
12:21am           195          0          0         44        100       73.5       72.0      29.47       72.0        420          0       1378       0.04       0.00       0.31      0.000
12:22am           195          0          0         44        100       73.5       71.9      29.47       71.9        420          0       1372      -0.06       0.00       0.31      0.000
12:23am           194          0          0         44        100       73.5       71.9      29.47       71.9        420          0       1372      -0.06       0.00       0.31      0.000
12:24am           195          0          0         44        100       73.5       71.9      29.47       71.9        421          0       1373      -0.06       0.00       0.31      0.000
12:25am           195          0          0         44        100       73.5       71.9      29.47       71.9        423          0       1375      -0.06       0.00       0.31      0.000
12:26am           195          0          0         44        100       73.5       71.9      29.46       71.9        424          0       1376      -0.06       0.00       0.31      0.000
12:27am           195          0          0         44        100       73.5       71.9      29.46       71.9        424          0       1376      -0.06       0.00       0.31      0.000
12:28am           194          0          0         44        100       73.5       72.0      29.47       72.0        423          0       1382       0.04       0.00       0.31      0.000
12:29am           195          0          0         44        100       73.5       72.0      29.47       72.0        422          0       1380       0.04       0.00       0.31      0.000
12:30am           195          0          0         44        100       73.5       72.0      29.47       72.0        420          0       1378       0.04       0.00       0.31      0.000
12:31am           195          0          0         44        100       73.5       71.9      29.47       71.9        420          0       1372      -0.06       0.00       0.31      0.000
12:32am           194          0          0         46        100       73.5       72.0      29.47       72.0        421          0       1379       0.04       0.00       0.31      0.000
12:33am           195          0          0         44        100       73.5       71.9      29.47       71.9        421          0       1373      -0.06       0.00       0.31      0.000
12:34am           195          0          0         44        100       73.5       71.9      29.47       71.9        422          0       1374      -0.06       0.00       0.31      0.000
12:35am           194          0          0         44        100       73.5       72.0      29.46       72.0        424          0       1383       0.04       0.00       0.31      0.000
12:36am           194          0          0         44        100       73.5       72.0      29.46       72.0        426          0       1385       0.04       0.00       0.31      0.000
12:37am           194          0          0         44        100       73.5       72.0      29.46       72.0        424          0       1383       0.04       0.00       0.31      0.000
12:38am           194          0          0         44        100       73.6       72.0      29.46       72.0        424          0       1383       0.04       0.00       0.31      0.000
12:39am           194          0          0         44        100       73.6       72.0      29.46       72.0        424          0       1383       0.04       0.00       0.31      0.000
12:40am           194          0          0         44        100       73.6       72.0      29.46       72.0        424          0       1383       0.04       0.00       0.31      0.000
12:41am           195          0          0         44        100       73.6       72.0      29.47       72.0        423          0       1382       0.04       0.00       0.31      0.000
12:42am           195          0          0         44        100       73.6       72.0      29.46       72.0        424          0       1383       0.04       0.00       0.31      0.000
12:43am           194          0          0         44        100       73.6       72.1      29.46       72.1        426          0       1391       0.14       0.00       0.31      0.000
12:44am           194          0          0         44        100       73.6       72.1      29.46       72.1        429          0       1395       0.14       0.00       0.31      0.000
12:45am           195          0          0         44        100       73.6       72.1      29.46       72.1        432          0       1399       0.14       0.00       0.31      0.000
12:46am           194          0          0         44        100       73.6       72.1      29.45       72.1        433          0       1400       0.13       0.00       0.31      0.000
12:47am           194          0          0         44        100       73.6       72.1      29.46       72.1        432          0       1399       0.13       0.00       0.31      0.000
12:48am           195          0          0         44        100       73.6       72.1      29.46       72.1        431          0       1398       0.13       0.00       0.31      0.000
12:49am           194          0          0         44        100       73.6       72.1      29.46       72.1        429          0       1396       0.13       0.00       0.31      0.000
12:50am           195          0          0         44        100       73.6       72.1      29.46       72.1        428          0       1394       0.13       0.00       0.31      0.000
12:51am           195          0          0         44        100       73.6       72.1      29.46       72.1        428          0       1394       0.12       0.00       0.31      0.000
12:52am           195          0          0         44        100       73.6       72.1      29.46       72.1        428          0       1394       0.12       0.00       0.31      0.000
12:53am           195          0          0         44        100       73.5       72.1      29.46       72.1        428          0       1394       0.12       0.00       0.31      0.000
12:54am           195          0          0         44        100       73.5       72.1      29.46       72.1        427          0       1392       0.12       0.00       0.31      0.000
12:55am           195          0          0         44        100       73.5       72.1      29.46       72.1        426          0       1391       0.12       0.00       0.31      0.000
12:56am           194          0          0         44        100       73.5       72.1      29.46       72.1        427          0       1392       0.12       0.00       0.30      0.000
12:57am           194          0          0         44        100       73.5       72.1      29.46       72.1        427          0       1392       0.11       0.00       0.30      0.000
12:58am           195          0          0         44        100       73.5       72.1      29.46       72.1        428          0       1394       0.11       0.00       0.30      0.000
12:59am           195          0          0         44        100       73.5       72.1      29.46       72.1        431          0       1398       0.11       0.00       0.30      0.000
1:00am            195          0          0         44        100       73.5       72.1      29.46       72.1        432          0       1399       0.11       0.00       0.30      0.000
1:01am            195          0          0         44        100       73.5       72.1      29.45       72.1        433          0       1400       0.11       0.00       0.30      0.000
1:02am            194          0          0         44        100       73.5       72.1      29.45       72.1        433          0       1400       0.10       0.00       0.30      0.000
1:03am            195          0          0         44        100       73.5       72.1      29.45       72.1        433          0       1400       0.10       0.00       0.30      0.000
1:04am            195          0          0         44        100       73.5       72.1      29.45       72.1        434          0       1401       0.10       0.00       0.30      0.000
1:05am            195          0          0         44        100       73.5       72.0      29.45       72.0        434          0       1395       0.00       0.00       0.30      0.000
1:06am            195          0          0         44        100       73.5       72.0      29.45       72.0        434          0       1395       0.00       0.00       0.30      0.000
1:07am            194          0          0         44        100       73.5       72.1      29.45       72.1        434          0       1401       0.10       0.00       0.30      0.000
1:08am            195          0          0         44        100       73.5       72.1      29.45       72.1        434          0       1401       0.10       0.00       0.30      0.000
1:09am            195          0          0         44        100       73.5       72.1      29.45       72.1        433          0       1400       0.10       0.00       0.30      0.000
1:10am            195          0          0         44        100       73.5       72.1      29.46       72.1        431          0       1398       0.09       0.00       0.30      0.000
1:11am            195          0          0         44        100       73.5       72.1      29.46       72.1        430          0       1397       0.09       0.00       0.30      0.000
1:12am            195          0          0         44        100       73.5       72.1      29.46       72.1        432          0       1399       0.09       0.00       0.30      0.000
1:13am            195          0          0         44        100       73.5       72.1      29.45       72.1        433          0       1400       0.09       0.00       0.30      0.000
1:14am            195          0          0         44        100       73.5       72.1      29.45       72.1        433          0       1400       0.09       0.00       0.30      0.000
1:15am            195          0          0         44        100       73.5       72.2      29.46       72.2        431          0       1404       0.19       0.00       0.30      0.000
1:16am            195          0          0         44        100       73.5       72.1      29.46       72.1        429          0       1396       0.08       0.00       0.30      0.000
1:17am            195          0          0         44        100       73.5       72.2      29.46       72.2        428          0       1400       0.18       0.00       0.30      0.000
1:18am            195          0          0         44        100       73.5       72.2      29.46       72.2        427          0       1399       0.18       0.00       0.30      0.000
1:19am            195          0          0         44        100       73.5       72.2      29.46       72.2        428          0       1400       0.18       0.00       0.30      0.000
1:20am            195          0          0         44        100       73.5       72.2      29.46       72.2        429          0       1402       0.17       0.00       0.30      0.000
1:21am            195          0          0         44        100       73.5       72.2      29.46       72.2        431          0       1404       0.17       0.00       0.30      0.000
1:22am            195          0          0         44        100       73.5       72.2      29.46       72.2        431          0       1404       0.17       0.00       0.30      0.000
1:23am            195          0          0         44        100       73.5       72.3      29.46       72.3        431          0       1411       0.26       0.00       0.30      0.000
1:24am            195          0          0         44        100       73.5       72.3      29.46       72.3        431          0       1411       0.26       0.00       0.30      0.000
1:25am            195          0          0         44        100       73.5       72.3      29.46       72.3        432          0       1412       0.25       0.00       0.30      0.000
1:26am            195          0          0         44        100       73.5       72.4      29.45       72.4        433          0       1419       0.35       0.00       0.30      0.000
1:27am            195          0          0         44        100       73.5       72.4      29.45       72.4        434          0       1421       0.34       0.00       0.30      0.000
1:28am            194          0          0         44        100       73.6       72.4      29.45       72.4        434          0       1421       0.34       0.00       0.30      0.000
1:29am            195          0          0         44        100       73.5       72.4      29.45       72.4        434          0       1421       0.33       0.00       0.30      0.000
1:30am            195          0          0         44        100       73.5       72.4      29.45       72.4        435          0       1422       0.33       0.00       0.30      0.000
1:31am            195          0          0         44        100       73.5       72.5      29.45       72.5        435          0       1428       0.42       0.00       0.30      0.000
1:32am            195          0          0         44        100       73.5       72.5      29.45       72.5        435          0       1428       0.42       0.00       0.30      0.000
1:33am            194          0          0         44        100       73.5       72.5      29.45       72.5        435          0       1428       0.41       0.00       0.30      0.000
1:34am            195          0          0         44        100       73.5       72.5      29.45       72.5        435          0       1428       0.40       0.00       0.30      0.000
1:35am            195          0          0         44        100       73.5       72.5      29.45       72.5        435          0       1428       0.39       0.00       0.30      0.000
1:36am            195          0          0         44        100       73.5       72.5      29.45       72.5        434          0       1427       0.39       0.00       0.30      0.000
1:37am            195          0          0         44        100       73.5       72.5      29.45       72.5        434          0       1427       0.38       0.00       0.30      0.000
1:38am            195          0          0         44        100       73.5       72.5      29.45       72.5        434          0       1427       0.38       0.00       0.30      0.000
1:39am            194          0          0         44        100       73.5       72.5      29.45       72.5        434          0       1427       0.37       0.00       0.30      0.000
1:40am            195          0          0         44        100       73.5       72.5      29.45       72.5        434          0       1427       0.36       0.00       0.30      0.000
1:41am            194          0          0         44        100       73.5       72.5      29.45       72.5        434          0       1427       0.36       0.00       0.30      0.000
1:42am            195          0          0         44        100       73.5       72.5      29.45       72.5        434          0       1427       0.35       0.00       0.30      0.000
1:43am            195          0          0         44        100       73.5       72.5      29.45       72.5        434          0       1427       0.34       0.00       0.30      0.000
1:44am            194          0          0         44        100       73.3       72.5      29.45       72.5        434          0       1427       0.34       0.00       0.30      0.000
1:45am            195          0          0         44        100       73.3       72.5      29.45       72.5        433          0       1426       0.33       0.00       0.30      0.000
1:46am            195          0          0         44        100       73.3       72.5      29.45       72.5        433          0       1426       0.33       0.00       0.30      0.000
1:47am            195          0          0         44        100       73.3       72.6      29.46       72.6        432          0       1431       0.42       0.00       0.30      0.000
1:48am            195          0          0         44        100       73.3       72.5      29.46       72.5        431          0       1424       0.32       0.00       0.30      0.000
1:49am            195          0          0         44        100       73.3       72.6      29.46       72.6        431          0       1430       0.41       0.00       0.30      0.000
1:50am            195          0          0         44        100       73.3       72.5      29.46       72.5        431          0       1424       0.30       0.00       0.30      0.000
1:51am            195          0          0         44        100       73.5       72.5      29.46       72.5        431          0       1424       0.30       0.00       0.30      0.000
1:52am            194          0          0         44        100       73.5       72.6      29.46       72.6        431          0       1430       0.39       0.00       0.30      0.000
1:53am            194          0          0         44        100       73.5       72.6      29.46       72.6        430          0       1429       0.39       0.00       0.30      0.000
1:54am            195          0          0         44        100       73.5       72.6      29.46       72.6        429          0       1426       0.38       0.00       0.30      0.000
1:55am            195          0          0         44        100       73.5       72.6      29.46       72.6        426          0       1423       0.37       0.00       0.30      0.000
1:56am            195          0          0         44        100       73.5       72.6      29.47       72.6        423          0       1420       0.37       0.00       0.30      0.000
1:57am            195          0          0         44        100       73.5       72.6      29.47       72.6        421          0       1417       0.36       0.00       0.30      0.000
1:58am            195          0          0         44        100       73.5       72.6      29.47       72.6        420          0       1416       0.36       0.00       0.30      0.000
1:59am            194          0          0         44        100       73.5       72.6      29.47       72.6        420          0       1416       0.35       0.00       0.30      0.000
2:00am            194          0          0         44        100       73.5       72.6      29.47       72.6        419          0       1415       0.34       0.00       0.30      0.000
2:01am            194          0          0         44        100       73.5       72.6      29.47       72.6        419          0       1415       0.34       0.00       0.30      0.000
2:02am            195          0          0         44        100       73.5       72.7      29.47       72.7        419          0       1422       0.43       0.00       0.30      0.000
2:03am            195          0          0         44        100       73.5       72.6      29.47       72.6        420          0       1416       0.33       0.00       0.30      0.000
2:04am            180          1          1         44        100       73.5       72.6      29.47       72.6        420          0       1416       0.32       0.00       0.30      0.000
2:05am             70          1          3         44        100       73.5       72.6      29.47       72.6        420          0       1416       0.32       0.00       0.30      0.000
2:06am             79          4          4         44        100       73.5       72.6      29.47       72.6        421          0       1417       0.31       0.00       0.30      0.000
2:07am             33          1          4         44        100       73.5       72.6      29.47       72.6        421          0       1417       0.31       0.00       0.30      0.000
2:08am             33          1          5         44        100       73.5       72.6      29.47       72.6        421          0       1417       0.30       0.00       0.30      0.000
2:09am             35          2          5         44        100       73.5       72.6      29.47       72.6        421          0       1417       0.30       0.00       0.30      0.000
2:10am             35          1          5         44        100       73.5       72.6      29.47       72.6        422          0       1419       0.29       0.00       0.30      0.000
2:11am             25          3          5         44        100       73.5       72.5      29.47       72.5        421          0       1411       0.19       0.00       0.30      0.000
2:12am             27          0          5         44        100       73.5       72.5      29.47       72.5        421          0       1411       0.18       0.00       0.30      0.000
2:13am             27          1          5         44        100       73.5       72.5      29.47       72.5        422          0       1412       0.18       0.00       0.30      0.000
2:14am             28          1          5         44        100       73.5       72.5      29.47       72.5        422          0       1412       0.18       0.00       0.30      0.000
2:15am             28          0          5         44        100       73.5       72.5      29.47       72.5        422          0       1412       0.18       0.00       0.30      0.000
2:16am             28          0          1         44        100       73.5       72.5      29.47       72.5        422          0       1412       0.17       0.00       0.30      0.000
2:17am             28          1          2         44        100       73.5       72.5      29.47       72.5        422          0       1412       0.17       0.00       0.30      0.000
2:18am             29          1          2         44        100       73.5       72.5      29.47       72.5        422          0       1412       0.17       0.00       0.30      0.000
2:19am             30          1          3         44        100       73.5       72.5      29.47       72.5        422          0       1412       0.16       0.00       0.30      0.000
2:20am             30          1          3         44        100       73.5       72.5      29.47       72.5        422          0       1412       0.16       0.00       0.30      0.000
2:21am             30          1          2         44        100       73.5       72.5      29.47       72.5        421          0       1411       0.16       0.00       0.29      0.000
2:22am             30          3          3         44        100       73.5       72.5      29.47       72.5        421          0       1411       0.16       0.00       0.29      0.000
2:23am             30          0          3         44        100       73.5       72.5      29.47       72.5        421          0       1411       0.15       0.00       0.29      0.000
2:24am             30          1          3         44        100       73.5       72.4      29.47       72.4        422          0       1406       0.05       0.00       0.29      0.000
2:25am             30          2          3         44        100       73.5       72.5      29.47       72.5        423          0       1413       0.15       0.00       0.29      0.000
2:26am             30          2          2         44        100       73.3       72.5      29.46       72.5        424          0       1414       0.15       0.00       0.29      0.000
2:27am             30          2          3         44        100       73.3       72.5      29.47       72.5        423          0       1413       0.15       0.00       0.29      0.000
2:28am             30          1          3         44        100       73.3       72.4      29.46       72.4        424          0       1408       0.05       0.00       0.29      0.000
2:29am             30          0          3         44        100       73.3       72.5      29.46       72.5        425          0       1416       0.14       0.00       0.29      0.000
2:30am             30          0          3         45        100       73.3       72.4      29.46       72.4        426          0       1410       0.04       0.00       0.29      0.000
2:31am             30          2          3         44        100       73.3       72.5      29.46       72.5        427          0       1418       0.14       0.00       0.29      0.000
2:32am             30          2          3         44        100       73.3       72.4      29.46       72.4        427          0       1412       0.04       0.00       0.29      0.000
2:33am             30          1          3         44        100       73.3       72.4      29.46       72.4        427          0       1412       0.04       0.00       0.29      0.000
2:34am             30          2          3         44        100       73.3       72.4      29.46       72.4        427          0       1412       0.04       0.00       0.29      0.000
2:35am             31          1          3         44        100       73.3       72.5      29.46       72.5        429          0       1420       0.14       0.00       0.29      0.000
2:36am             31          2          2         44        100       73.3       72.4      29.46       72.4        429          0       1415       0.04       0.00       0.29      0.000
2:37am             31          0          2         44        100       73.3       72.4      29.46       72.4        431          0       1417       0.04       0.00       0.29      0.000
2:38am             31          0          2         44        100       73.3       72.4      29.46       72.4        432          0       1418       0.03       0.00       0.29      0.000
2:39am             31          1          2         44        100       73.3       72.4      29.45       72.4        433          0       1419       0.03       0.00       0.29      0.000
2:40am             31          2          2         44        100       73.3       72.4      29.45       72.4        433          0       1419       0.03       0.00       0.29      0.000
2:41am             31          1          2         44        100       73.3       72.4      29.45       72.4        434          0       1421       0.03       0.00       0.29      0.000
2:42am             31          1          2         44        100       73.3       72.4      29.45       72.4        434          0       1421       0.03       0.00       0.29      0.000
2:43am             31          0          2         44        100       73.5       72.4      29.45       72.4        435          0       1422       0.03       0.00       0.29      0.000
2:44am             31          1          2         44        100       73.5       72.4      29.45       72.4        435          0       1422       0.03       0.00       0.29      0.000
2:45am             87          2          4         44        100       73.5       72.4      29.45       72.4        435          0       1422       0.03       0.00       0.29      0.000
2:46am             87          0          3         44        100       73.5       72.4      29.45       72.4        435          0       1422       0.03       0.00       0.29      0.000
2:47am             87          0          3         44        100       73.5       72.4      29.45       72.4        436          0       1423       0.03       0.00       0.29      0.000
2:48am             87          0          3         44        100       73.5       72.4      29.45       72.4        437          0       1424       0.03       0.00       0.29      0.000
2:49am             87          0          3         44        100       73.5       72.3      29.45       72.3        437          0       1418      -0.07       0.00       0.29      0.000
2:50am             87          0          3         44        100       73.5       72.3      29.45       72.3        437          0       1418      -0.07       0.00       0.29      0.000
2:51am             87          0          0         44        100       73.5       72.3      29.45       72.3        436          0       1416      -0.07       0.00       0.29      0.000
2:52am             87          0          0         44        100       73.5       72.4      29.45       72.4        436          0       1423       0.03       0.00       0.29      0.000
2:53am             87          0          0         44        100       73.5       72.3      29.45       72.3        436          0       1416      -0.07       0.00       0.29      0.000
2:54am             87          1          1         44        100       73.5       72.3      29.45       72.3        437          0       1418      -0.07       0.00       0.29      0.000
2:55am             87          0          2         44        100       73.5       72.3      29.45       72.3        437          0       1418      -0.06       0.00       0.29      0.000
2:56am             87          0          1         44        100       73.5       72.3      29.45       72.3        437          0       1418      -0.06       0.00       0.29      0.000
2:57am             87          0          1         44        100       73.5       72.3      29.45       72.3        435          0       1415      -0.06       0.00       0.29      0.000
2:58am             87          1          2         44        100       73.5       72.3      29.45       72.3        435          0       1415      -0.06       0.00       0.29      0.000
2:59am             87          1          2         44        100       73.5       72.3      29.45       72.3        435          0       1415      -0.06       0.00       0.29      0.000
3:00am             87          0          2         44        100       73.5       72.3      29.45       72.3        435          0       1415      -0.06       0.00       0.29      0.000
3:01am             87          1          2         44        100       73.5       72.3      29.45       72.3        435          0       1415      -0.06       0.00       0.29      0.000
3:02am             87          0          2         44        100       73.5       72.3      29.45       72.3        436          0       1416      -0.06       0.00       0.29      0.000
3:03am             87          1          2         44        100       73.5       72.3      29.45       72.3        436          0       1416      -0.06       0.00       0.29      0.000
3:04am             87          0          2         44        100       73.5       72.4      29.45       72.4        437          0       1424       0.04       0.00       0.29      0.000
3:05am             87          1          2         44        100       73.5       72.4      29.45       72.4        436          0       1423       0.04       0.00       0.29      0.000
3:06am             87          2          2         44        100       73.5       72.4      29.45       72.4        436          0       1423       0.04       0.00       0.29      0.000
3:07am             87          3          3         44        100       73.5       72.3      29.45       72.3        435          0       1415      -0.06       0.00       0.29      0.000
3:08am             87          2          3         44        100       73.5       72.3      29.45       72.3        436          0       1416      -0.06       0.00       0.29      0.000
3:09am             87          1          3         44        100       73.5       72.3      29.45       72.3        436          0       1416      -0.06       0.00       0.29      0.000
3:10am             87          0          3         44        100       73.5       72.4      29.45       72.4        438          0       1425       0.04       0.00       0.29      0.000
3:11am             87          1          2         44        100       73.5       72.4      29.45       72.4        438          0       1425       0.04       0.00       0.29      0.000
3:12am             87          2          2         44        100       73.5       72.4      29.45       72.4        437          0       1424       0.04       0.00       0.29      0.000
3:13am             87          0          2         44        100       73.5       72.3      29.45       72.3        436          0       1416      -0.06       0.00       0.29      0.000
3:14am             87          1          2         44        100       73.5       72.4      29.45       72.4        436          0       1423       0.04       0.00       0.29      0.000
3:15am             87          0          2         44        100       73.5       72.3      29.45       72.3        435          0       1415      -0.06       0.00       0.29      0.000
3:16am             87          0          0         44        100       73.5       72.3      29.45       72.3        435          0       1415      -0.06       0.00       0.29      0.000
3:17am             87          0          0         44        100       73.5       72.3      29.45       72.3        434          0       1414      -0.05       0.00       0.29      0.000
3:18am             87          0          1         44        100       73.3       72.3      29.45       72.3        433          0       1413      -0.05       0.00       0.29      0.000
3:19am             87          0          1         44        100       73.3       72.3      29.46       72.3        431          0       1411      -0.05       0.00       0.29      0.000
3:20am             87          0          1         44        100       73.3       72.2      29.46       72.2        430          0       1403      -0.15       0.00       0.29      0.000
3:21am             87          0          0         44        100       73.3       72.3      29.46       72.3        429          0       1409      -0.05       0.00       0.29      0.000
3:22am             87          0          0         44        100       73.3       72.2      29.46       72.2        429          0       1402      -0.15       0.00       0.29      0.000
3:23am             87          0          0         44        100       73.3       72.3      29.46       72.3        428          0       1406      -0.05       0.00       0.29      0.000
3:24am             87          0          1         44        100       73.3       72.3      29.46       72.3        428          0       1406      -0.05       0.00       0.29      0.000
3:25am             87          0          1         44        100       73.3       72.2      29.46       72.2        428          0       1400      -0.15       0.00       0.29      0.000
3:26am             87          0          0         44        100       73.3       72.3      29.46       72.3        430          0       1410      -0.04       0.00       0.29      0.000
3:27am             87          0          0         44        100       73.3       72.3      29.46       72.3        430          0       1410      -0.04       0.00       0.29      0.000
3:28am             87          0          0         44        100       73.3       72.3      29.46       72.3        429          0       1409      -0.04       0.00       0.29      0.000
3:29am             87          0          0         44        100       73.3       72.2      29.46       72.2        428          0       1400      -0.14       0.00       0.29      0.000
3:30am             87          0          0         44        100       73.3       72.3      29.46       72.3        428          0       1406      -0.04       0.00       0.29      0.000
3:31am             87          0          0         44        100       73.5       72.3      29.46       72.3        428          0       1406      -0.04       0.00       0.29      0.000
3:32am             87          0          0         44        100       73.5       72.2      29.46       72.2        429          0       1401      -0.13       0.00       0.29      0.000
3:33am             87          0          0         44        100       73.5       72.3      29.46       72.3        430          0       1410      -0.03       0.00       0.29      0.000
3:34am             87          0          0         44        100       73.5       72.3      29.46       72.3        431          0       1411      -0.03       0.00       0.29      0.000
3:35am             87          0          0         44        100       73.5       72.3      29.45       72.3        433          0       1413      -0.03       0.00       0.29      0.000
3:36am             87          0          0         44        100       73.5       72.3      29.45       72.3        434          0       1414      -0.03       0.00       0.29      0.000
3:37am             87          0          0         44        100       73.5       72.3      29.45       72.3        434          0       1414      -0.03       0.00       0.29      0.000
3:38am             87          0          0         44        100       73.5       72.3      29.45       72.3        434          0       1414      -0.03       0.00       0.29      0.000
3:39am             87          0          0         44        100       73.5       72.3      29.45       72.3        434          0       1414      -0.03       0.00       0.29      0.000
3:40am             87          0          0         44        100       73.5       72.3      29.45       72.3        434          0       1414      -0.03       0.00       0.29      0.000
3:41am             87          0          0         44        100       73.5       72.3      29.45       72.3        434          0       1414      -0.03       0.00       0.29      0.000
3:42am             87          0          0         44        100       73.5       72.3      29.45       72.3        434          0       1414      -0.03       0.00       0.29      0.000
3:43am             87          0          0         44        100       73.5       72.3      29.45       72.3        434          0       1414      -0.03       0.00       0.29      0.000
3:44am             87          3          3         44        100       73.5       72.3      29.45       72.3        433          0       1413      -0.03       0.00       0.29      0.000
3:45am             87          2          3         44        100       73.5       72.2      29.45       72.2        433          0       1407      -0.13       0.00       0.29      0.000
3:46am             87          2          3         44        100       73.5       72.3      29.45       72.3        434          0       1414      -0.02       0.00       0.29      0.000
3:47am             87          1          3         44        100       73.5       72.3      29.45       72.3        434          0       1414      -0.02       0.00       0.29      0.000
3:48am             87          1          3         44        100       73.5       72.3      29.45       72.3        434          0       1414      -0.02       0.00       0.29      0.000
3:49am             87          3          3         44        100       73.5       72.3      29.45       72.3        434          0       1414      -0.02       0.00       0.29      0.000
3:50am             87          1          3         44        100       73.5       72.3      29.45       72.3        434          0       1414      -0.02       0.00       0.29      0.000
3:51am             87          2          3         44        100       73.6       72.3      29.45       72.3        434          0       1414      -0.02       0.00       0.29      0.000
3:52am             87          0          3         44        100       73.6       72.4      29.45       72.4        434          0       1421       0.08       0.00       0.29      0.000
3:53am             87          0          3         44        100       73.6       72.3      29.46       72.3        432          0       1412      -0.02       0.00       0.29      0.000
3:54am             87          0          3         44        100       73.6       72.3      29.46       72.3        432          0       1412      -0.02       0.00       0.29      0.000
3:55am             87          0          3         44        100       73.6       72.4      29.46       72.4        431          0       1417       0.08       0.00       0.29      0.000
3:56am             87          0          0         44        100       73.5       72.4      29.46       72.4        430          0       1416       0.08       0.00       0.29      0.000
3:57am             87          0          0         44        100       73.5       72.4      29.46       72.4        429          0       1415       0.07       0.00       0.29      0.000
3:58am             87          0          0         44        100       73.5       72.4      29.46       72.4        429          0       1415       0.07       0.00       0.29      0.000
3:59am             87          0          0         44        100       73.5       72.4      29.46       72.4        429          0       1414       0.07       0.00       0.29      0.000
4:00am             87          0          0         44        100       73.5       72.4      29.46       72.4        428          0       1413       0.07       0.00       0.29      0.000
4:01am             87          0          0         44        100       73.5       72.5      29.46       72.5        427          0       1418       0.17       0.00       0.29      0.000
4:02am             87          0          0         44        100       73.5       72.4      29.46       72.4        429          0       1414       0.07       0.00       0.29      0.000
4:03am             87          0          0         44        100       73.5       72.5      29.46       72.5        429          0       1420       0.17       0.00       0.29      0.000
4:04am             87          1          4         44        100       73.5       72.4      29.46       72.4        429          0       1414       0.06       0.00       0.29      0.000
4:05am             87          0          4         44        100       73.5       72.5      29.46       72.5        429          0       1420       0.16       0.00       0.29      0.000
4:06am             87          1          2         44        100       73.5       72.5      29.46       72.5        429          0       1420       0.16       0.00       0.29      0.000
4:07am             87          0          2         44        100       73.5       72.5      29.46       72.5        429          0       1420       0.15       0.00       0.29      0.000
4:08am             87          0          2         44        100       73.5       72.5      29.46       72.5        429          0       1421       0.15       0.00       0.29      0.000
4:09am             87          1          2         44        100       73.3       72.5      29.46       72.5        429          0       1421       0.15       0.00       0.29      0.000
4:10am             87          0          2         44        100       73.3       72.5      29.46       72.5        431          0       1424       0.15       0.00       0.29      0.000
4:11am             87          0          0         44        100       73.3       72.5      29.46       72.5        432          0       1425       0.15       0.00       0.29      0.000
4:12am             87          2          2         44        100       73.3       72.5      29.46       72.5        432          0       1425       0.14       0.00       0.29      0.000
4:13am             87          2          2         44        100       73.3       72.5      29.45       72.5        433          0       1426       0.14       0.00       0.29      0.000
4:14am             87          0          2         44        100       73.3       72.5      29.45       72.5        433          0       1426       0.14       0.00       0.29      0.000
4:15am             87          0          2         44        100       73.3       72.5      29.45       72.5        434          0       1427       0.14       0.00       0.29      0.000
4:16am             87          1          1         44        100       73.3       72.5      29.45       72.5        434          0       1427       0.13       0.00       0.29      0.000
4:17am             87          1          2         44        100       73.3       72.5      29.45       72.5        435          0       1428       0.13       0.00       0.29      0.000
4:18am             87          0          2         44        100       73.3       72.5      29.45       72.5        435          0       1428       0.13       0.00       0.29      0.000
4:19am             87          0          2         44        100       73.5       72.5      29.45       72.5        435          0       1428       0.13       0.00       0.29      0.000
4:20am             87          2          3         44        100       73.5       72.5      29.45       72.5        436          0       1429       0.13       0.00       0.29      0.000
4:21am             87          2          3         44        100       73.5       72.5      29.45       72.5        437          0       1430       0.12       0.00       0.29      0.000
4:22am             87          4          4         44        100       73.5       72.6      29.45       72.6        437          0       1437       0.22       0.00       0.29      0.000
4:23am             87          2          4         44        100       73.5       72.6      29.45       72.6        438          0       1438       0.22       0.00       0.29      0.000
4:24am             87          4          4         44        100       73.5       72.6      29.45       72.6        438          0       1438       0.21       0.00       0.29      0.000
4:25am             87          2          4         44        100       73.5       72.6      29.45       72.6        437          0       1437       0.21       0.00       0.29      0.000
4:26am             87          1          2         44        100       73.5       72.6      29.45       72.6        437          0       1437       0.21       0.00       0.29      0.000
4:27am            160          3          5         44        100       73.5       72.6      29.45       72.6        438          0       1438       0.20       0.00       0.29      0.000
4:28am            193          3          5         44        100       73.5       72.6      29.45       72.6        437          0       1437       0.20       0.00       0.29      0.000
4:29am            202          1          5         44        100       73.5       72.6      29.45       72.6        437          0       1437       0.20       0.00       0.29      0.000
4:30am            237          6          6         44        100       73.5       72.6      29.45       72.6        437          0       1437       0.19       0.00       0.29      0.000
4:31am            161          2          6         44        100       73.5       72.6      29.45       72.6        437          0       1437       0.19       0.00       0.29      0.000
4:32am             93          1          6         44        100       73.5       72.6      29.45       72.6        436          0       1435       0.18       0.00       0.29      0.000
4:33am             93          1          6         44        100       73.5       72.7      29.45       72.7        435          0       1441       0.28       0.00       0.29      0.000
4:34am            193          3          6         44        100       73.5       72.6      29.45       72.6        435          0       1434       0.18       0.00       0.29      0.000
4:35am            100          2          6         44        100       73.5       72.6      29.45       72.6        435          0       1434       0.17       0.00       0.29      0.000
4:36am            186          1          4         44        100       73.5       72.7      29.45       72.7        435          0       1441       0.27       0.00       0.29      0.000
4:37am            129          4          4         44        100       73.5       72.7      29.45       72.7        436          0       1442       0.26       0.00       0.29      0.000
4:38am            129          1          5         44        100       73.5       72.7      29.45       72.7        436          0       1442       0.26       0.00       0.29      0.000
4:39am            177          6          6         44        100       73.5       72.7      29.45       72.7        436          0       1442       0.26       0.00       0.29      0.000
4:40am            168          1          6         44        100       73.5       72.7      29.45       72.7        435          0       1441       0.25       0.00       0.29      0.000
4:41am            135          1          3         44        100       73.6       72.7      29.45       72.7        435          0       1441       0.25       0.00       0.29      0.000
4:42am            135          1          3         44        100       73.6       72.7      29.45       72.7        434          0       1440       0.24       0.00       0.29      0.000
4:43am            135          0          3         44        100       73.6       72.7      29.45       72.7        434          0       1440       0.24       0.00       0.29      0.000
4:44am            135          1          3         44        100       73.6       72.7      29.45       72.7        433          0       1438       0.24       0.00       0.29      0.000
4:45am            135          2          3         44        100       73.6       72.7      29.46       72.7        431          0       1436       0.23       0.00       0.29      0.000
4:46am            135          1          2         44        100       73.6       72.7      29.46       72.7        429          0       1433       0.23       0.00       0.29      0.000
4:47am            123          2          4         44        100       73.6       72.7      29.46       72.7        426          0       1429       0.22       0.00       0.29      0.000
4:48am            123          0          4         44        100       73.6       72.7      29.46       72.7        424          0       1427       0.22       0.00       0.29      0.000
4:49am            123          1          4         44        100       73.6       72.8      29.47       72.8        423          0       1432       0.32       0.00       0.29      0.000
4:50am            123          4          4         44        100       73.6       72.7      29.47       72.7        422          0       1425       0.21       0.00       0.29      0.000
4:51am             89          3          4         44        100       73.6       72.7      29.47       72.7        421          0       1424       0.21       0.00       0.29      0.000
4:52am             89          1          5         44        100       73.6       72.7      29.47       72.7        421          0       1424       0.21       0.00       0.29      0.000
4:53am             89          1          5         44        100       73.6       72.7      29.47       72.7        420          0       1423       0.20       0.00       0.29      0.000
4:54am             28          2          6         44        100       73.6       72.7      29.47       72.7        420          0       1423       0.20       0.00       0.29      0.000
4:55am             28          1          6         44        100       73.6       72.7      29.47       72.7        420          0       1423       0.20       0.00       0.29      0.000
4:56am             28          1          2         44        100       73.5       72.7      29.47       72.7        420          0       1423       0.19       0.00       0.29      0.000
4:57am             28          0          2         44        100       73.5       72.7      29.47       72.7        420          0       1423       0.19       0.00       0.29      0.000
4:58am             28          1          2         44        100       73.5       72.7      29.47       72.7        419          0       1422       0.19       0.00       0.29      0.000
4:59am             28          1          2         44        100       73.5       72.6      29.47       72.6        419          0       1415       0.08       0.00       0.29      0.000
5:00am             28          1          2         44        100       73.5       72.7      29.47       72.7        418          0       1419       0.18       0.00       0.29      0.000
5:01am             33          1          2         44        100       73.5       72.7      29.47       72.7        418          0       1419       0.18       0.00       0.29      0.000
5:02am             33          0          2         44        100       73.5       72.6      29.47       72.6        417          0       1412       0.08       0.00       0.29      0.000
5:03am             33          0          2         44        100       73.5       72.6      29.47       72.6        418          0       1413       0.07       0.00       0.29      0.000
5:04am             39          1          2         44        100       73.5       72.6      29.47       72.6        417          0       1412       0.07       0.00       0.29      0.000
5:05am             17          2          7         44        100       73.5       72.6      29.47       72.6        417          0       1412       0.07       0.00       0.29      0.000
5:06am             17          1          2         44        100       73.5       72.6      29.48       72.6        414          0       1408       0.07       0.00       0.29      0.000
5:07am             16          0          2         44        100       73.5       72.5      29.48       72.5        411          0       1399      -0.03       0.00       0.29      0.000
5:08am             23          3          3         44        100       73.5       72.5      29.48       72.5        408          0       1395      -0.03       0.00       0.29      0.000
5:09am             89          2          5         44        100       73.5       72.5      29.48       72.5        407          0       1394      -0.03       0.00       0.29      0.000
5:10am             89          1          5         44        100       73.5       72.5      29.48       72.5        409          0       1396      -0.03       0.00       0.29      0.000
5:11am             89          3          3         44        100       73.5       72.5      29.48       72.5        412          0       1400      -0.03       0.02       0.31      0.000
5:12am             89          3          4         44        100       73.5       72.4      29.47       72.4        418          0       1400      -0.13       0.04       0.33      1.600
5:13am             89          1          4         44        100       73.5       72.4      29.47       72.4        419          0       1402      -0.13       0.07       0.36      2.040
5:14am             89          3          4         44        100       73.5       72.4      29.47       72.4        420          0       1404      -0.13       0.10       0.39      1.570
5:15am             89          0          4         44        100       73.5       72.4      29.47       72.4        420          0       1404      -0.12       0.11       0.40      0.710
5:16am             89          0          1         44        100       73.5       72.4      29.47       72.4        419          0       1402      -0.12       0.12       0.41      0.530
5:17am             89          0          1         44        100       73.5       72.4      29.47       72.4        418          0       1400      -0.12       0.12       0.41      0.340
5:18am             89          1          1         44        100       73.5       72.4      29.47       72.4        417          0       1399      -0.12       0.12       0.41      0.220
5:19am             89          2          2         44        100       73.5       72.4      29.47       72.4        416          0       1398      -0.12       0.12       0.41      0.160
5:20am             89          3          3         44        100       73.5       72.4      29.48       72.4        414          0       1396      -0.12       0.13       0.42      0.140
5:21am             89          1          3         44        100       73.5       72.4      29.48       72.4        412          0       1393      -0.11       0.13       0.42      0.140
5:22am             89          2          3         44        100       73.5       72.4      29.48       72.4        409          0       1390      -0.11       0.13       0.42      0.140
5:23am             89          1          3         44        100       73.5       72.4      29.48       72.4        408          0       1389      -0.11       0.13       0.42      0.140
5:24am             89          1          3         44        100       73.5       72.3      29.48       72.3        406          0       1380      -0.21       0.13       0.42      0.140
5:25am             89          1          3         44        100       73.5       72.4      29.48       72.4        406          0       1386      -0.10       0.13       0.42      0.110
5:26am             89          0          2         44        100       73.5       72.4      29.48       72.4        406          0       1386      -0.10       0.13       0.42      0.090
5:27am             89          0          2         44        100       73.5       72.3      29.48       72.3        406          0       1379      -0.20       0.13       0.42      0.080
5:28am             89          0          2         44        100       73.5       72.3      29.48       72.3        406          0       1379      -0.19       0.13       0.42      0.070
5:29am             89          0          2         44        100       73.5       72.3      29.48       72.3        406          0       1379      -0.19       0.14       0.43      0.070
5:30am             89          0          2         44        100       73.5       72.4      29.48       72.4        406          0       1386      -0.09       0.15       0.44      0.520
5:31am             89          2          2         44        100       73.6       72.3      29.48       72.3        406          0       1379      -0.19       0.15       0.44      0.340
5:32am             89          2          3         44        100       73.6       72.4      29.48       72.4        406          0       1387      -0.08       0.16       0.45      0.310
5:33am             89          5          5         44        100       73.6       72.3      29.48       72.3        406          0       1380      -0.18       0.16       0.45      0.310
5:34am             89          1          5         44        100       73.6       72.3      29.48       72.3        406          0       1380      -0.18       0.16       0.45      0.220
5:35am             89          3          5         44        100       73.6       72.3      29.48       72.3        406          0       1380      -0.18       0.17       0.46      0.200
5:36am             89          2          3         44        100       73.6       72.3      29.48       72.3        407          0       1381      -0.17       0.17       0.46      0.200
5:37am             89          2          3         44        100       73.6       72.3      29.48       72.3        408          0       1383      -0.17       0.17       0.46      0.200
5:38am             89          1          3         44        100       73.6       72.2      29.48       72.2        408          0       1376      -0.27       0.17       0.46      0.160
5:39am             89          4          4         44        100       73.6       72.3      29.48       72.3        408          0       1383      -0.16       0.17       0.46      0.120
5:40am             89          1          4         44        100       73.6       72.2      29.48       72.2        406          0       1374      -0.26       0.18       0.47      0.120
5:41am             89          1          2         44        100       73.6       72.2      29.48       72.2        406          0       1373      -0.26       0.18       0.47      0.120
5:42am             89          0          2         44        100       73.6       72.2      29.48       72.2        406          0       1373      -0.25       0.18       0.47      0.120
5:43am             89          1          2         44        100       73.6       72.2      29.48       72.2        406          0       1374      -0.25       0.19       0.48      0.180
5:44am             89          3          3         44        100       73.6       72.2      29.48       72.2        408          0       1376      -0.24       0.19       0.48      0.180
5:45am             89          2          4         44        100       73.6       72.2      29.48       72.2        414          0       1383      -0.24       0.19       0.48      0.240
5:46am             89          2          4         44        100       73.6       72.2      29.47       72.2        415          0       1384      -0.24       0.20       0.49      0.240
5:47am            161          4          6         44        100       73.6       72.1      29.47       72.1        417          0       1380      -0.33       0.20       0.49      0.240
5:48am            161          1          6         44        100       73.6       72.1      29.47       72.1        417          0       1380      -0.33       0.20       0.49      0.190
5:49am            161          0          6         44        100       73.6       72.1      29.48       72.1        413          0       1375      -0.32       0.20       0.49      0.150
5:50am            161          0          6         44        100       73.6       72.1      29.48       72.1        410          0       1372      -0.32       0.20       0.49      0.120
5:51am            161          0          0         44        100       73.6       72.0      29.48       72.0        409          0       1365      -0.41       0.20       0.49      0.100
5:52am            161          0          0         44        100       73.6       72.0      29.48       72.0        408          0       1363      -0.40       0.20       0.49      0.080
5:53am             89          3          4         44        100       73.5       72.0      29.48       72.0        408          0       1363      -0.40       0.20       0.49      0.070
5:54am             89          2          4         44        100       73.5       71.9      29.48       71.9        407          0       1356      -0.49       0.20       0.49      0.070
5:55am             49          2          4         44        100       73.5       71.9      29.48       71.9        406          0       1355      -0.48       0.20       0.49      0.060
5:56am             49          1          2         44        100       73.5       71.8      29.48       71.8        406          0       1347      -0.57       0.20       0.49      0.050
5:57am             85          1          4         44        100       73.5       71.8      29.48       71.8        406          0       1347      -0.56       0.20       0.49      0.050
5:58am             85          1          4         44        100       73.5       71.8      29.48       71.8        406          0       1347      -0.56       0.20       0.49      0.050
5:59am             85          2          4         44        100       73.5       71.8      29.48       71.8        406          0       1347      -0.55       0.20       0.49      0.040
6:00am             85          0          4         44        100       73.5       71.7      29.48       71.7        406          0       1342      -0.64       0.20       0.49      0.040
6:01am             85          0          0         44        100       73.5       71.7      29.48       71.7        407          0       1343      -0.62       0.20       0.49      0.040
6:02am             85          2          2         44        100       73.5       71.7      29.48       71.7        408          0       1344      -0.61       0.20       0.49      0.000
6:03am             85          2          3         44        100       73.5       71.7      29.48       71.7        408          0       1344      -0.60       0.20       0.49      0.000
6:04am             85          1          3         44        100       73.5       71.6      29.48       71.6        408          0       1338      -0.69       0.21       0.50      0.000
6:05am             85          0          3         44        100       73.5       71.6      29.48       71.6        407          0       1337      -0.68       0.21       0.50      0.000
6:06am            102          2          3         44        100       73.5       71.6      29.48       71.6        407          0       1337      -0.67       0.21       0.50      0.000
6:07am            102          2          3         44        100       73.5       71.6      29.48       71.6        408          0       1338      -0.66       0.21       0.50      0.000
6:08am             64          2          5         44        100       73.5       71.5      29.48       71.5        409          0       1333      -0.75       0.21       0.50      0.000
6:09am             74          1          5         44        100       73.5       71.5      29.48       71.5        410          0       1334      -0.73       0.21       0.50      0.000
6:10am             73          1          5         44        100       73.5       71.4      29.48       71.4        409          0       1326      -0.82       0.21       0.50      0.000
6:11am             69          3          4         44        100       73.5       71.5      29.48       71.5        412          0       1336      -0.71       0.21       0.50      0.000
6:12am             73          2          4         44        100       73.5       71.4      29.48       71.4        412          0       1330      -0.80       0.21       0.50      0.000
6:13am             71          2          4         44        100       73.5       71.3      29.48       71.3        414          0       1326      -0.88       0.21       0.50      0.000
6:14am             71          0          4         44        100       73.5       71.3      29.48       71.3        413          0       1325      -0.87       0.21       0.50      0.000
6:15am             71          1          4         44        100       73.5       71.3      29.48       71.3        411          0       1322      -0.86       0.21       0.50      0.000
6:16am             71          1          2         44        100       73.5       71.3      29.48       71.3        410          0       1321      -0.84       0.21       0.50      0.000
6:17am             71          0          2         44        100       73.5       71.3      29.48       71.3        411          0       1322      -0.83       0.21       0.50      0.000
6:18am             71          0          2         44        100       73.5       71.3      29.48       71.3        413          0       1325      -0.81       0.21       0.50      0.000
6:19am             71          0          2         44        100       73.5       71.3      29.47       71.3        415          0       1327      -0.80       0.21       0.50      0.000
6:20am             77          2          3         44        100       73.5       71.3      29.47       71.3        415          0       1327      -0.79       0.21       0.50      0.000
6:21am             77          0          2         44        100       73.5       71.2      29.47       71.2        416          0       1322      -0.87       0.21       0.50      0.000
6:22am             77          0          2         44        100       73.5       71.2      29.47       71.2        415          0       1320      -0.86       0.21       0.50      0.000
6:23am             77          1          2         44        100       73.5       71.2      29.48       71.2        414          0       1319      -0.84       0.21       0.50      0.000
6:24am             71          5          5         44        100       73.5       71.2      29.48       71.2        412          0       1317      -0.83       0.21       0.50      0.000
6:25am             71          0          5         44        100       73.6       71.2      29.48       71.2        409          0       1314      -0.82       0.21       0.50      0.000
6:26am             75          3          3         44        100       73.6       71.2      29.48       71.2        407          0       1311      -0.80       0.21       0.50      0.000
6:27am             75          2          3         44        100       73.6       71.2      29.48       71.2        406          0       1310      -0.79       0.21       0.50      0.000
6:28am             74          3          3         44        100       73.6       71.2      29.48       71.2        406          0       1310      -0.78       0.21       0.50      0.000
6:29am             74          2          3         44        100       73.6       71.2      29.48       71.2        407          0       1311      -0.76       0.21       0.50      0.000
6:30am             74          2          3         44        100       73.6       71.1      29.48       71.1        407          0       1305      -0.85       0.21       0.50      0.000
6:31am             75          3          3         44        100       73.6       71.1      29.48       71.1        408          0       1306      -0.84       0.21       0.50      0.000
6:32am             75          1          3         44        100       73.6       71.1      29.48       71.1        410          0       1308      -0.82       0.21       0.50      0.000
6:33am             75          1          3         44        100       73.6       71.1      29.48       71.1        413          0       1312      -0.81       0.21       0.50      0.000
6:34am             75          2          3         44        100       73.6       71.1      29.48       71.1        414          0       1313      -0.79       0.21       0.50      0.000
6:35am             75          1          3         44        100       73.6       71.1      29.47       71.1        415          0       1314      -0.78       0.21       0.50      0.000
6:36am             75          0          1         44        100       73.6       71.1      29.47       71.1        415          0       1314      -0.77       0.21       0.50      0.000
6:37am             75          0          1         44        100       73.6       71.1      29.48       71.1        414          0       1313      -0.76       0.21       0.50      0.000
6:38am             76          2          2         44        100       73.6       71.0      29.48       71.0        411          0       1303      -0.84       0.21       0.50      0.000
6:39am             75          3          3         44        100       73.6       71.1      29.48       71.1        410          0       1308      -0.73       0.21       0.50      0.000
6:40am             75          2          3         44        100       73.6       71.1      29.48       71.1        410          0       1308      -0.72       0.21       0.50      0.000
6:41am             75          2          2         44        100       73.6       71.0      29.48       71.0        410          0       1302      -0.80       0.21       0.50      0.000
6:42am             76          1          2         44        100       73.6       71.0      29.48       71.0        410          0       1302      -0.79       0.21       0.50      0.000
6:43am             66          0          3         44        100       73.6       71.0      29.48       71.0        408          0       1300      -0.78       0.21       0.50      0.000
6:44am             66          1          3         44        100       73.6       71.0      29.48       71.0        406          0       1298      -0.77       0.21       0.50      0.000
6:45am             48          2          3         44        100       73.8       71.0      29.49       71.0        405          0       1295      -0.75       0.21       0.50      0.000
6:46am             48          3          3         44        100       73.8       71.0      29.49       71.0        403          0       1293      -0.74       0.21       0.50      0.000
6:47am             48          2          3         44        100       73.8       71.0      29.49       71.0        397          0       1286      -0.73       0.21       0.50      0.000
6:48am             48          2          3         44        100       73.8       71.0      29.50       71.0        392          0       1279      -0.72       0.21       0.50      0.000
6:49am             25          3          5         44        100       73.8       71.0      29.50       71.0        390          0       1277      -0.70       0.21       0.50      0.000
6:50am             22          2          5         44        100       73.8       71.0      29.50       71.0        389          0       1276      -0.69       0.21       0.50      0.000
6:51am             19          2          3         44        100       73.8       71.0      29.51       71.0        384          0       1269      -0.68       0.21       0.50      0.000
6:52am              2          3          5         44        100       73.8       71.0      29.51       71.0        379          0       1264      -0.67       0.21       0.50      0.000
6:53am              2          0          5         44        100       73.8       71.1      29.52       71.1        376          0       1267      -0.56       0.21       0.50      0.000
6:54am              2          1          5         44        100       73.8       71.1      29.52       71.1        373          0       1263      -0.55       0.25       0.54      2.060
6:55am            232          0          5         44        100       73.8       71.1      29.52       71.1        375          0       1266      -0.54       0.27       0.56      1.690
6:56am            232          3          3         44        100       73.8       71.1      29.51       71.1        378          0       1269      -0.53       0.29       0.58      1.540
6:57am            213          2          4         44        100       73.8       71.1      29.51       71.1        385          0       1278      -0.52       0.32       0.61      2.620
6:58am            185          3          5         44        100       73.8       71.0      29.50       71.0        391          0       1278      -0.61       0.38       0.67      3.950
6:59am            162          3          7         44        100       73.8       71.0      29.50       71.0        391          0       1278      -0.60       0.43       0.72      2.460
7:00am            196          2          7         44        100       73.8       71.0      29.49       71.0        398          0       1287      -0.59       0.46       0.75      2.700
7:01am            196          1          3         44        100       73.8       71.0      29.49       71.0        398          0       1287      -0.58       0.50       0.79      2.460
7:02am            196          0          3         44        100       73.8       70.9      29.49       70.9        402          0       1285      -0.67       0.52       0.81      1.150
7:03am            196          0          3         44        100       73.8       70.9      29.49       70.9        404          0       1288      -0.66       0.53       0.82      0.990
7:04am            196          0          3         46        100       73.8       70.9      29.49       70.9        405          0       1289      -0.65       0.54       0.83      0.570
7:05am            196          1          3         44        100       74.0       70.9      29.49       70.9        405          0       1289      -0.64       0.55       0.84      0.520
7:06am            196          0          1         44        100       74.0       70.8      29.48       70.8        406          0       1284      -0.73       0.55       0.84      0.270
7:07am            196          2          2         44        100       74.0       70.8      29.48       70.8        406          0       1285      -0.72       0.55       0.84      0.190
7:08am            196          1          2         44        100       74.0       70.8      29.48       70.8        408          0       1287      -0.70       0.55       0.84      0.140
7:09am            196          1          2         44        100       74.0       70.8      29.48       70.8        407          0       1286      -0.69       0.55       0.84      0.120
7:10am            196          2          2         44        100       74.0       70.8      29.48       70.8        406          0       1284      -0.68       0.55       0.84      0.100
7:11am            196          2          2         44        100       74.0       70.8      29.49       70.8        405          0       1282      -0.67       0.56       0.85      0.100
7:12am            196          1          2         44        100       74.0       70.8      29.49       70.8        403          0       1280      -0.66       0.56       0.85      0.100
7:13am            196          0          2         44        100       74.0       70.8      29.49       70.8        402          0       1279      -0.65       0.56       0.85      0.100
7:14am            196          0          2         44        100       74.0       70.8      29.49       70.8        401          0       1278      -0.64       0.56       0.85      0.100
7:15am            196          0          2         44        100       74.0       70.8      29.49       70.8        399          0       1276      -0.63       0.56       0.85      0.100
7:16am            196          0          0         44        100       74.0       70.8      29.49       70.8        399          0       1276      -0.62       0.56       0.85      0.100
7:17am            196          1          2         44        100       74.0       70.8      29.49       70.8        397          0       1273      -0.61       0.56       0.85      0.090
7:18am            196          0          2         44        100       74.0       70.8      29.49       70.8        397          0       1273      -0.60       0.56       0.85      0.080
7:19am            196          0          2         44        100       74.0       70.8      29.49       70.8        400          0       1277      -0.59       0.56       0.85      0.070
7:20am            196          1          2         44        100       74.2       70.8      29.49       70.8        402          0       1279      -0.58       0.56       0.85      0.060
7:21am            196          1          1         44        100       74.2       70.8      29.49       70.8        402          0       1279      -0.57       0.56       0.85      0.050
7:22am            196          0          1         44        100       74.2       70.8      29.49       70.8        402          0       1279      -0.56       0.56       0.85      0.050
7:23am            196          0          1         44        100       74.2       70.8      29.49       70.8        400          0       1277      -0.55       0.56       0.85      0.050
7:24am            196          1          1         44        100       74.2       70.8      29.49       70.8        399          0       1276      -0.54       0.56       0.85      0.040
7:25am            196          1          1         44        100       74.2       70.8      29.49       70.8        398          0       1275      -0.53       0.56       0.85      0.040
7:26am            196          1          1         44        100       74.2       70.8      29.49       70.8        399          0       1276      -0.52       0.56       0.85      0.040
7:27am            196          0          1         44        100       74.2       70.8      29.49       70.8        400          0       1277      -0.51       0.56       0.85      0.000
7:28am            196          1          1         44        100       74.2       70.8      29.49       70.8        401          0       1278      -0.51       0.56       0.85      0.000
7:29am            196          1          1         44        100       74.2       70.8      29.49       70.8        401          0       1278      -0.50       0.56       0.85      0.000
7:30am            196          1          2         44        100       74.2       70.7      29.49       70.7        401          0       1272      -0.59       0.56       0.85      0.000
7:31am            196          1          2         44        100       74.2       70.7      29.49       70.7        400          0       1270      -0.58       0.56       0.85      0.000
7:32am            196          1          2         44        100       74.2       70.7      29.49       70.7        398          0       1268      -0.57       0.56       0.85      0.000
7:33am            196          1          2         44        100       74.2       70.7      29.49       70.7        396          0       1266      -0.56       0.56       0.85      0.000
7:34am            196          1          2         44        100       74.2       70.7      29.49       70.7        397          0       1267      -0.55       0.56       0.85      0.000
7:35am            196          0          2         44        100       74.2       70.7      29.49       70.7        398          0       1268      -0.54       0.56       0.85      0.000
7:36am            196          1          1         44        100       74.3       70.7      29.49       70.7        400          0       1270      -0.53       0.56       0.85      0.000
7:37am            196          1          2         44        100       74.3       70.7      29.49       70.7        402          0       1273      -0.53       0.56       0.85      0.000
7:38am            196          3          3         44        100       74.3       70.7      29.49       70.7        404          0       1275      -0.52       0.56       0.85      0.000
7:39am            196          1          3         44        100       74.3       70.7      29.48       70.7        406          0       1277      -0.51       0.56       0.85      0.000
7:40am            196          2          3         44        100       74.3       70.7      29.48       70.7        406          0       1277      -0.50       0.56       0.85      0.000
7:41am            196          2          2         44        100       74.3       70.7      29.48       70.7        406          0       1277      -0.49       0.56       0.85      0.000
7:42am            196          1          3         44        100       74.3       70.7      29.48       70.7        406          0       1277      -0.48       0.56       0.85      0.000
7:43am            196          1          3         44        100       74.3       70.7      29.48       70.7        406          0       1277      -0.48       0.56       0.85      0.000
7:44am            196          1          3         44        100       74.3       70.7      29.48       70.7        406          0       1277      -0.47       0.56       0.85      0.000
7:45am            196          1          3         44        100       74.3       70.7      29.48       70.7        406          0       1277      -0.46       0.56       0.85      0.000
7:46am            196          0          2         45        100       74.3       70.7      29.48       70.7        406          0       1278      -0.45       0.56       0.85      0.000
7:47am            196          2          2         44        100       74.3       70.7      29.48       70.7        406          0       1278      -0.45       0.56       0.85      0.000
7:48am            196          1          2         44        100       74.3       70.7      29.48       70.7        407          0       1279      -0.44       0.56       0.85      0.000
7:49am            170          2          5         44        100       74.3       70.7      29.48       70.7        410          0       1283      -0.43       0.56       0.85      0.000
7:50am            170          2          5         44        100       74.3       70.7      29.47       70.7        415          0       1289      -0.42       0.56       0.85      0.000
7:51am            172          3          5         44        100       74.5       70.7      29.47       70.7        419          0       1294      -0.42       0.56       0.85      0.000
7:52am            172          2          5         44        100       74.5       70.7      29.47       70.7        420          0       1295      -0.41       0.56       0.85      0.000
7:53am            172          2          5         44        100       74.5       70.7      29.47       70.7        421          0       1296      -0.40       0.56       0.85      0.000
7:54am            208          3          5         44        100       74.5       70.7      29.47       70.7        420          0       1295      -0.40       0.56       0.85      0.000
7:55am            208          1          5         44        100       74.5       70.7      29.47       70.7        419          0       1294      -0.39       0.56       0.85      0.000
7:56am            208          1          2         44        100       74.5       70.8      29.47       70.8        418          0       1299      -0.28       0.56       0.85      0.000
7:57am            208          1          2         44        100       74.5       70.7      29.47       70.7        418          0       1292      -0.38       0.56       0.85      0.000
7:58am            208          1          2         44        100       74.5       70.7      29.47       70.7        418          0       1292      -0.37       0.56       0.85      0.000
7:59am            182          3          5         44        100       74.5       70.7      29.47       70.7        419          0       1294      -0.37       0.56       0.85      0.000
8:00am            182          4          5         44        100       74.5       70.8      29.47       70.8        420          0       1302      -0.26       0.56       0.85      0.000
8:01am            182          1          4         44        100       74.5       70.8      29.47       70.8        423          0       1305      -0.26       0.56       0.85      0.000
8:02am            182          1          4         44        100       74.5       70.8      29.46       70.8        424          0       1306      -0.25       0.56       0.85      0.000
8:03am            214          3          4         44        100       74.5       70.8      29.47       70.8        421          0       1303      -0.25       0.56       0.85      0.000
8:04am            156          3          6         45        100       74.5       70.8      29.47       70.8        419          0       1301      -0.24       0.56       0.85      0.000
8:05am            227          3          6         45        100       74.5       70.8      29.47       70.8        419          0       1301      -0.24       0.56       0.85      0.000
8:06am            193          4          5         45        100       74.5       70.8      29.47       70.8        419          0       1301      -0.23       0.56       0.85      0.000
8:07am            188          2          5         44        100       74.7       70.8      29.47       70.8        421          0       1303      -0.23       0.56       0.85      0.000
8:08am            188          1          5         44        100       74.7       70.9      29.46       70.9        425          0       1314      -0.13       0.56       0.85      0.000
8:09am            188          2          5         44        100       74.7       70.9      29.46       70.9        428          0       1317      -0.12       0.56       0.85      0.000
8:10am            168          2          5         45        100       74.7       70.9      29.46       70.9        428          0       1317      -0.12       0.56       0.85      0.000
8:11am            158          5          5         44        100       74.7       70.9      29.45       70.9        434          0       1325      -0.12       0.56       0.85      0.000
8:12am            181          4          6         44        100       74.7       70.9      29.45       70.9        441          0       1333      -0.12       0.56       0.85      0.000
8:13am            158          4          6         44        100       74.7       70.9      29.44       70.9        447          0       1341      -0.12       0.56       0.85      0.000
8:14am            216          1          6         44        100       74.7       71.0      29.44       71.0        447          0       1347      -0.01       0.56       0.85      0.000
8:15am            216          1          6         44        100       74.7       70.9      29.44       70.9        444          0       1337      -0.11       0.56       0.85      0.000
8:16am            222          4          4         45        100       74.7       70.9      29.44       70.9        444          0       1337      -0.11       0.56       0.85      0.000
8:17am            189          4          5         45        100       74.7       70.9      29.44       70.9        447          0       1341      -0.11       0.56       0.85      0.000
8:18am            145          3          7         44        100       74.7       70.9      29.44       70.9        451          0       1345      -0.11       0.56       0.85      0.000
8:19am            100          1          7         45        100       74.7       70.9      29.42       70.9        463          0       1360      -0.10       0.56       0.85      0.000
8:20am            128          4         10         45        100       74.7       70.9      29.42       70.9        468          0       1367      -0.10       0.56       0.85      0.000
8:21am             83          8          8         45        100       74.7       71.0      29.41       71.0        477          0       1384      -0.00       0.56       0.85      0.000
8:22am             95          2          8         45        100       74.7       71.0      29.40       71.0        482          0       1390      -0.00       0.56       0.85      0.000
8:23am            255          3          8         45        100       74.9       70.9      29.40       70.9        480          0       1382      -0.10       0.56       0.85      0.000
8:24am            186          2          8         45        100       74.9       71.0      29.41       71.0        478          0       1386      -0.00       0.56       0.85      0.000
8:25am            193          4          8         44        100       74.9       71.0      29.41       71.0        476          0       1383      -0.00       0.56       0.85      0.000
8:26am            254          4          6         45        100       74.9       71.0      29.42       71.0        470          0       1375      -0.00       0.56       0.85      0.000
8:27am            164          7          7         45        100       74.9       71.1      29.42       71.1        464          0       1375       0.10       0.56       0.85      0.000
8:28am            305          2          7         45        100       74.9       71.0      29.42       71.0        464          0       1368      -0.00       0.56       0.85      0.000
8:29am            242          3          7         45        100       74.9       71.1      29.42       71.1        463          0       1373       0.10       0.56       0.85      0.000
8:30am             39          1          7         45        100       74.9       71.0      29.43       71.0        460          0       1363      -0.00       0.56       0.85      0.000
8:31am             35          1          2         45        100       74.9       71.1      29.44       71.1        450          0       1357       0.10       0.56       0.85      0.000
8:32am            300          4          6         45        100       74.9       71.2      29.44       71.2        448          0       1361       0.19       0.56       0.85      0.000
8:33am            216          1          6         45        100       74.9       71.2      29.44       71.2        444          0       1357       0.19       0.56       0.85      0.000
8:34am            237          5          6         45        100       74.9       71.2      29.45       71.2        439          0       1350       0.19       0.56       0.85      0.000
8:35am            230          2          6         45        100       74.9       71.2      29.45       71.2        436          0       1346       0.19       0.56       0.85      0.000
8:36am            210          5          9         45        100       74.9       71.3      29.45       71.3        435          0       1352       0.28       0.56       0.85      0.000
8:37am            187          1          9         45        100       74.9       71.4      29.45       71.4        434          0       1357       0.38       0.56       0.85      0.000
8:38am            239          3          9         45        100       74.9       71.4      29.45       71.4        434          0       1357       0.37       0.56       0.85      0.000
8:39am            175          3          9         45        100       74.9       71.4      29.45       71.4        433          0       1356       0.36       0.56       0.85      0.000
8:40am            175          1          9         45        100       74.9       71.5      29.46       71.5        432          0       1361       0.46       0.56       0.85      0.000
8:41am            175          1          1         45        100       75.0       71.5      29.46       71.5        432          0       1361       0.45       0.56       0.85      0.000
8:42am            250          1          2         45        100       75.0       71.6      29.45       71.6        433          0       1368       0.54       0.56       0.85      0.000
8:43am            236          4          4         45        100       75.0       71.6      29.46       71.6        431          0       1366       0.53       0.56       0.85      0.000
8:44am            243          4          8         45        100       75.0       71.7      29.46       71.7        430          0       1371       0.62       0.56       0.85      0.000
8:45am            270          4          8         45        100       75.0       71.7      29.46       71.7        432          0       1374       0.61       0.56       0.85      0.000
8:46am            178          3          4         45        100       75.0       71.7      29.45       71.7        434          0       1376       0.60       0.56       0.85      0.000
8:47am            210          4          6         45        100       75.0       71.7      29.45       71.7        435          0       1377       0.59       0.56       0.85      0.000
8:48am            218          4          6         45        100       75.0       71.7      29.45       71.7        435          0       1377       0.58       0.56       0.85      0.000
8:49am            220          4          6         45        100       75.0       71.8      29.45       71.8        435          0       1383       0.67       0.56       0.85      0.000

Data provided from:  Mark Hofmann's Bel Air, MD Weather Station